Location: Franzen
(48.6167°N, 15.3833°E)
Time: 18:41:48
(UTC+00:00)

A-11 Canister half - Pass Details

Date: 06 August 2021
Orbit: 1515 x 1685 km, 47.2° (Epoch: 19 September)

Event Time Altitude Azimuth Distance (km) Brightness Sun altitude
Rises 12:53:48 0° 195° (SSW) 4,712 12.1 50.9°
Reaches altitude 10° 12:57:29 10° 183° (S) 3,757 11.6 50.5°
Maximum altitude 13:04:49 26° 132° (SE) 2,778 10.6 49.6°
Drops below altitude 10° 13:12:20 10° 81° (E) 3,875 10.9 48.7°
Sets 13:16:11 0° 70° (ENE) 4,890 11.3 48.2°
